Location: Keppel Henge
(44.7900°N, 80.9447°W)
Time: 12:57:10
(UTC-05:00)

CUTE-I - Visible Passes

Search period start: 25 February 2018 00:00
Search period end: 07 March 2018 00:00
Orbit: 811 x 825 km, 98.7° (Epoch: 24 February)

Date Brightness Start Highest point End Pass type
(mag) Time Alt. Az. Time Alt. Az. Time Alt. Az.
25 Feb ? 06:08:27 10° NNE 06:13:19 33° E 06:18:08 10° SSE visible
25 Feb ? 19:14:07 10° SW 19:17:40 18° W 19:21:15 10° NW visible
26 Feb ? 05:47:41 10° NE 05:51:49 22° E 05:55:56 10° SE visible
26 Feb ? 18:51:39 10° SSW 18:56:08 27° W 19:00:40 10° NW visible
27 Feb ? 05:27:24 10° ENE 05:30:15 14° E 05:33:06 10° ESE visible
27 Feb ? 18:29:40 10° SSW 18:34:41 41° W 18:39:45 10° NNW visible
01 Mar ? 06:23:05 10° NNE 06:28:15 45° E 06:33:22 10° S visible
01 Mar ? 19:30:16 10° WSW 19:32:42 13° W 19:35:10 10° WNW visible
02 Mar ? 06:02:06 10° NE 06:06:48 29° E 06:11:27 10° SSE visible
02 Mar ? 19:07:13 10° SW 19:11:07 20° W 19:15:04 10° NW visible
03 Mar ? 05:41:26 10° NE 05:45:17 20° E 05:49:06 10° SE visible
03 Mar ? 18:44:56 10° SSW 18:49:37 31° W 18:54:21 10° NNW visible
04 Mar ? 05:21:29 10° ENE 05:23:41 12° E 05:25:54 10° ESE visible
06 Mar ? 06:16:41 10° NNE 06:21:44 39° E 06:26:44 10° SSE visible
06 Mar ? 19:23:06 10° SW 19:26:08 15° W 19:29:11 10° NW visible
